Home > Weather > Canterbury > Past weeks

Flag for United Kingdom Weather for the Past 2 Weeks in Canterbury, England, United Kingdom

Now
48 °F

Cool.


Feels Like: 44 °F
Forecast: 51 / 66 °F
Wind: 10 mph from Southeast

Location: Manston

Current Time: May 5, 2016 at 1:17:32 AM

Latest Report: May 5, 2016 at 12:00 AM


Visibility: 7 mi

Pressure: 30.26 "Hg

Humidity: 90%

Dew Point: 46 °F

Location of CanterburyLocation

Historic Weather in Canterbury — Graph

°F

Canterbury Temperature Yesterday

Maximum temperature yesterday: 60 °F (at 3:00 PM)
Minimum temperature yesterday: 42 °F (at 5:00 AM)
Average temperature yesterday: 51 °F

High & Low Weather Summary for the Past Weeks

 TemperatureHumidityPressure
High60 °F (May 4, 3:00 PM)99% (May 2, 9:00 AM)30.47 "Hg (May 2, 9:00 AM)
Low36 °F (Apr 26, 4:00 AM)40% (May 3, 5:00 PM)29.69 "Hg (Apr 26, 5:00 AM)
Average47 °F77%30.13 "Hg
* Reported Midnight between Apr 19 and Apr 20 — Midnight between May 4 and May 5, Canterbury, Weather by CustomWeather, © 2016

Note: Actual official high and low records may vary slightly from our data, if they occured in-between our weather recording intervals... More about our weather records

Advertising

Canterbury Weather History for the Previous 24 Hours

Scroll right to see more
 ConditionsComfort  
Time TempWeatherWind HumidityBarometerVisibility
12:00 AM
Thu, May 5
48 °FCool.10 mph90%30.26 "Hg7 mi
11:00 PM
Wed, May 4
45 °FCool.9 mph90%30.27 "Hg7 mi
10:00 PM45 °FCool.9 mph83%30.28 "Hg8 mi
9:00 PM45 °FCool.8 mph75%30.29 "Hg13 mi
8:00 PM51 °FCool.9 mph65%30.28 "Hg19 mi
7:00 PM53 °FCool.12 mph56%30.29 "Hg28 mi
6:00 PM57 °FRefreshingly cool.12 mph53%30.29 "Hg25 mi
5:00 PM58 °FRefreshingly cool.13 mph52%30.30 "Hg17 mi
4:00 PM59 °FRefreshingly cool.12 mph48%30.32 "Hg28 mi
3:00 PM60 °FRefreshingly cool.12 mph47%30.33 "Hg28 mi
2:00 PM59 °FRefreshingly cool.13 mph47%30.34 "Hg15 mi
1:00 PM60 °FRefreshingly cool.12 mph48%30.35 "Hg19 mi
12:00 PM58 °FRefreshingly cool.12 mph59%30.36 "Hg13 mi
11:00 AM57 °FCool.12 mph66%30.37 "Hg14 mi
10:00 AM56 °FCool.10 mph83%30.36 "Hg12 mi
9:00 AM53 °FCool.7 mph84%30.37 "Hg12 mi
8:00 AM49 °FCool.5 mph76%30.36 "Hg11 mi
7:00 AM46 °FCool.3 mph85%30.36 "Hg17 mi
6:00 AM42 °FQuite cool.5 mph87%30.36 "Hg13 mi
5:00 AM42 °FQuite cool.6 mph92%30.36 "Hg13 mi
4:00 AM43 °FQuite cool.8 mph86%30.36 "Hg17 mi
3:00 AM44 °FQuite cool.7 mph89%30.36 "Hg12 mi
2:00 AM44 °FQuite cool.8 mph89%30.36 "Hg15 mi
1:00 AM45 °FCool.N/A88%30.36 "Hg14 mi
Weather by CustomWeather, © 2016

See weather overviewHow to use our weather pages